Simultaneous Nadir Overpasses (SNOs) Predictions

Prediction of SNOs between GOES-14 and AQUA Satellite Orbit:

Table of predicted SNOs for the next 14.0 days since TLE Epoch: 7/4/2020
Index Date Time (GOES-14) GOES-14 Lat,Lon AQUA Lat,Lon Distance(km) Time Diff (sec)
1 07/05/2020 08:29:45 -0.20,-104.24 -0.43,-103.24 113.55 80
2 07/05/2020 20:48:30 0.23,-104.44 -0.60,-108.45 455.49 80
3 07/07/2020 08:17:33 -0.20,-104.24 -1.02,-100.28 450.74 80
4 07/07/2020 20:36:18 0.23,-104.45 -0.01,-105.48 118.13 80
5 07/09/2020 20:26:47 0.22,-104.46 0.65,-102.53 219.59 80
6 07/10/2020 08:45:22 -0.25,-104.27 0.50,-107.68 388.57 80
7 07/12/2020 08:33:11 -0.25,-104.28 -0.16,-104.73 50.56 80
8 07/14/2020 08:23:39 -0.25,-104.30 -0.76,-101.76 287.39 80
9 07/14/2020 20:42:23 0.27,-104.49 -0.26,-106.97 281.83 80
10 07/16/2020 20:32:52 0.28,-104.51 0.40,-104.02 55.91 80
